Location: Falniów
(50.3639°N, 19.9642°E)
Time: 13:43:38
(UTC+00:00)

Cosmos 2082 Rocket - Pass Details

Date: 20 April 2026
Orbit: 831 x 853 km, 71.0° (Epoch: 19 May)

Event Time Altitude Azimuth Distance (km) Brightness Sun altitude
Exits shadow 01:29:04 24° 260° (W) 1,712 3.3 -17.9°
Maximum altitude 01:31:54 38° 311° (NW) 1,282 3.1 -17.6°
Drops below altitude 10° 01:37:14 10° 19° (NNE) 2,494 5.6 -17.0°
Sets 01:39:53 0° 28° (NNE) 3,433 6.8 -16.7°
